Location: Unspecified
(35.6961°N, 0.0000°E)
Time: 08:23:17
(UTC+00:00)

UNISAT 6 - Pass Details

Date: 22 June 2019
Orbit: 607 x 689 km, 97.8° (Epoch: 21 July)

Event Time Altitude Azimuth Distance (km) Brightness Sun altitude
Rises 21:45:58 0° 356° (N) 2,888 ? -22.7°
Reaches altitude 10° 21:48:29 10° 342° (NNW) 1,988 ? -23.0°
Maximum altitude 21:51:52 23° 290° (WNW) 1,340 ? -23.3°
Drops below altitude 10° 21:55:17 10° 238° (WSW) 2,010 ? -23.7°
Enters shadow 21:56:08 - 232° (SW) 2,297 ? -23.8°
